Back to catalog

CZ-6A DEB

AliveSSO
NORAD 54390·DEBRIS·🇨🇳 China

Launched Nov 11, 2022 from Taiyuan Satellite Launch Center

Loading…

Next Passes (next 24 hours)

TLE

FreshSource: Space-Track

Epoch: Sep 14, 2026, 03:25 UTC

1 54390U 22151DN  26257.14303883  .00000413  00000-0  32498-3 0  9991
2 54390  98.9773 231.2078 0125568 193.9415 165.8268 13.93678058194570

Track CZ-6A DEB in real time with AllMySat

Download on the App Store